IISCHIA8 Weather Reports


time (UTC)temp
F
wind
direction
speed
knots
gust
knots
rain 1hr
in
rain 24hr
in
rain mn
in
humidity
%
barometer
mb
20260507142641 67 304 7.0 10.4 0.00 0.06 0.06 86 1010.7
20260507142135 67 298 7.0 10.4 0.00 0.06 0.06 86 1010.8
20260507141017 67 311 7.0 8.7 0.00 0.06 0.06 86 1011.0
20260507140514 67 307 7.0 8.7 0.00 0.06 0.06 86 1011.0
20260507140019 67 316 7.0 8.7 0.00 0.06 0.06 85 1011.1
20260507135509 68 303 6.1 8.7 0.00 0.06 0.06 85 1011.1
20260507135006 68 319 6.1 9.6 0.00 0.06 0.06 85 1011.3
20260507134503 68 306 6.1 9.6 0.00 0.06 0.06 85 1011.3
20260507134001 68 290 7.0 10.4 0.00 0.06 0.06 85 1011.4
20260507133450 68 276 7.8 10.4 0.00 0.06 0.06 84 1011.6
20260507132942 68 303 7.8 10.4 0.00 0.06 0.06 84 1011.6
20260507132438 68 311 7.0 10.4 0.00 0.06 0.06 83 1011.6
20260507131926 68 292 7.0 8.7 0.00 0.06 0.06 83 1011.7
20260507131421 68 302 7.0 8.7 0.00 0.06 0.06 83 1011.8
20260507130931 68 290 7.0 8.7 0.00 0.06 0.06 83 1011.9
20260507130432 68 312 7.0 8.7 0.00 0.06 0.06 83 1011.9
20260507125918 68 322 6.1 8.7 0.00 0.06 0.06 83 1012.1
20260507125414 68 303 5.2 7.8 0.00 0.06 0.06 83 1012.1
20260507124911 68 306 5.2 7.8 0.00 0.06 0.06 83 1012.0
20260507124403 68 294 5.2 7.8 0.00 0.06 0.06 83 1012.0
20260507123911 68 302 5.2 7.8 0.00 0.06 0.06 83 1012.1
20260507120834 67 317 4.3 7.0 0.00 0.06 0.06 82 1012.6
20260507120341 67 306 3.5 6.1 0.00 0.06 0.06 83 1012.7
20260507115829 67 301 2.6 5.2 0.00 0.06 0.06 83 1012.6
20260507115337 67 315 2.6 3.5 0.00 0.06 0.06 83 1012.6
20260507114822 67 315 2.6 3.5 0.00 0.06 0.06 83 1012.5
20260507114315 67 319 2.6 3.5 0.00 0.06 0.06 82 1012.6
20260507113806 66 321 2.6 3.5 0.00 0.06 0.06 82 1012.6
20260507112619 66 320 2.6 4.3 0.00 0.06 0.06 82 1012.7
20260507112105 66 317 3.5 6.1 0.00 0.06 0.06 83 1012.8
20260507110950 66 311 4.3 6.1 0.00 0.06 0.06 84 1012.9
20260507110447 66 319 4.3 6.1 0.00 0.06 0.06 84 1013.0
20260507105933 66 321 4.3 6.1 0.00 0.06 0.06 84 1013.0
20260507105421 66 322 3.5 6.1 0.00 0.06 0.06 85 1013.1
20260507104915 66 317 2.6 4.3 0.00 0.06 0.06 85 1013.2
20260507104404 66 326 3.5 4.3 0.00 0.06 0.06 85 1013.3
20260507103912 66 327 2.6 4.3 0.00 0.06 0.06 85 1013.2
20260507102756 66 327 2.6 3.5 0.00 0.06 0.06 84 1013.4
20260507102256 66 327 1.7 3.5 0.00 0.06 0.06 84 1013.3
20260507101744 66 25 0.9 2.6 0.00 0.06 0.06 85 1013.4
20260507101241 66 25 1.7 2.6 0.00 0.06 0.06 84 1013.5
20260507100743 66 24 1.7 2.6 0.00 0.06 0.06 84 1013.7
20260507100244 67 71 0.9 2.6 0.00 0.06 0.06 83 1013.8
20260507095744 67 71 0.9 2.6 0.00 0.06 0.06 83 1013.6
20260507095243 67 71 1.7 2.6 0.00 0.06 0.06 84 1013.4
20260507094126 67 96 0.9 2.6 0.00 0.06 0.06 84 1013.5
20260507093634 66 96 0.9 5.2 0.00 0.06 0.06 83 1013.4
20260507093123 66 96 0.9 5.2 0.00 0.06 0.06 83 1013.5
20260507092628 66 98 1.7 5.2 0.00 0.06 0.06 83 1013.4
20260507092113 66 98 2.6 5.2 0.00 0.06 0.06 83 1013.5
20260507091608 66 90 1.7 4.3 0.00 0.06 0.06 82 1013.5
20260507091112 67 81 0.9 2.6 0.00 0.06 0.06 83 1013.5
20260507090602 67 61 0.9 1.7 0.00 0.06 0.06 84 1013.7
20260507090043 67 57 0.9 1.7 0.00 0.06 0.06 84 1013.6
20260507085549 67 56 0.9 1.7 0.00 0.06 0.06 85 1013.3
20260507083745 65 313 0.0 1.7 0.00 0.06 0.06 86 1013.4
20260507083242 64 313 0.0 1.7 0.00 0.06 0.06 87 1013.5
20260507082139 64 313 0.9 1.7 0.00 0.06 0.06 87 1013.4
20260507081622 64 313 0.0 2.6 0.00 0.06 0.06 87 1013.5
20260507081112 64 306 0.9 2.6 0.00 0.06 0.06 88 1013.6
20260507080606 64 306 1.7 3.5 0.00 0.06 0.06 88 1013.7
20260507080056 64 306 2.6 3.5 0.00 0.06 0.06 88 1013.6
20260507075559 63 300 2.6 3.5 0.00 0.06 0.06 89 1013.6
20260507075101 63 306 1.7 3.5 0.00 0.06 0.06 89 1013.8
20260507074556 63 294 1.7 2.6 0.00 0.06 0.06 90 1013.7
20260507074039 63 338 1.7 2.6 0.00 0.06 0.06 90 1013.6
20260507073534 63 338 1.7 2.6 0.00 0.06 0.06 90 1013.5
20260507073023 63 338 0.9 2.6 0.00 0.06 0.06 91 1013.5
20260507072507 63 338 0.0 1.7 0.00 0.06 0.06 91 1013.7
20260507071333 63 338 0.0 0.9 0.00 0.06 0.06 92 1013.6
20260507070818 62 338 0.0 0.9 0.00 0.06 0.06 92 1013.7
20260507070324 62 338 0.0 0.0 0.00 0.06 0.06 92 1013.7
20260507065818 62 338 0.0 0.0 0.00 0.06 0.06 92 1013.7
20260507065308 62 338 0.9 2.6 0.00 0.06 0.06 92 1013.7
20260507064756 62 338 1.7 3.5 0.00 0.06 0.06 92 1013.7
20260507064257 62 338 1.7 3.5 0.00 0.06 0.06 92 1013.6
20260507063739 62 338 2.6 6.1 0.00 0.06 0.06 92 1013.6
20260507063221 62 338 3.5 6.1 0.00 0.06 0.06 92 1013.6
20260507062721 62 350 4.3 7.0 0.00 0.06 0.06 92 1013.5
20260507061556 62 5 5.2 7.8 0.00 0.06 0.06 92 1013.4
20260507061036 62 355 5.2 7.8 0.00 0.06 0.06 92 1013.4
20260507060538 62 9 6.1 7.8 0.00 0.06 0.06 92 1013.4
20260507060026 62 22 6.1 7.0 0.00 0.06 0.06 92 1013.4
20260507055532 62 12 6.1 7.0 0.00 0.06 0.06 92 1013.3
20260507055037 63 9 5.2 7.0 0.00 0.06 0.06 91 1013.4
20260507054538 63 5 4.3 6.1 0.00 0.06 0.06 91 1013.4
20260507053422 63 323 6.1 8.7 0.00 0.06 0.06 92 1013.3
20260507052924 63 327 7.0 8.7 0.00 0.06 0.06 92 1013.3
20260507052415 63 328 7.8 8.7 0.00 0.06 0.06 92 1013.3
20260507051914 63 328 7.0 8.7 0.00 0.06 0.06 93 1013.2
20260507051406 62 333 5.2 7.8 0.00 0.06 0.06 93 1013.1
20260507050859 62 342 2.6 7.0 0.00 0.06 0.06 93 1013.1
20260507050345 61 302 0.9 2.6 0.00 0.06 0.06 93 1013.1
20260507045206 61 216 1.7 2.6 0.00 0.06 0.06 92 1013.0
20260507044656 61 213 0.9 2.6 0.00 0.06 0.06 92 1013.0
20260507044151 61 213 0.9 2.6 0.00 0.06 0.06 92 1012.8
20260507043648 61 213 1.7 2.6 0.00 0.06 0.06 92 1012.7
20260507043148 61 213 1.7 2.6 0.00 0.06 0.06 92 1012.7
20260507042641 61 209 0.9 2.6 0.00 0.06 0.06 92 1012.6
20260507042129 61 205 0.9 2.6 0.00 0.06 0.06 92 1012.6
20260507041628 61 205 0.9 1.7 0.00 0.06 0.06 91 1012.8
20260507041130 61 203 0.9 1.7 0.00 0.06 0.06 91 1012.7
20260507040634 61 199 0.9 1.7 0.00 0.06 0.06 91 1012.8
20260507035510 62 173 0.0 1.7 0.00 0.06 0.06 91 1012.7
20260507035003 61 173 0.9 2.6 0.00 0.06 0.06 91 1012.9
20260507034446 61 173 0.9 2.6 0.00 0.06 0.06 91 1012.8
20260507033938 62 173 0.9 3.5 0.00 0.06 0.06 91 1012.7
20260507033437 62 165 0.9 3.5 0.00 0.06 0.06 91 1012.7
20260507032940 62 167 0.9 3.5 0.00 0.06 0.06 91 1012.8
20260507031836 62 165 0.9 2.6 0.00 0.06 0.06 90 1013.0
20260507030706 62 192 0.0 8.7 0.00 0.06 0.06 90 1013.1
20260507030159 62 178 0.9 8.7 0.00 0.06 0.06 89 1013.0
20260507025659 63 152 2.6 9.6 0.00 0.06 0.06 90 1013.0
20260507025143 63 185 3.5 9.6 0.00 0.06 0.06 90 1012.7
20260507024631 63 130 3.5 11.3 0.00 0.06 0.06 89 1012.7
20260507022845 63 136 7.0 11.3 0.00 0.06 0.06 89 1012.5
20260507022351 63 94 7.0 11.3 0.00 0.06 0.06 89 1012.4
20260507021859 63 127 5.2 11.3 0.00 0.05 0.06 89 1012.5
20260507021342 62 135 1.7 8.7 0.00 0.05 0.05 88 1012.6
20260507020205 63 61 3.5 7.8 0.00 0.05 0.05 88 1012.3
20260507015655 62 111 2.6 7.8 0.00 0.05 0.05 88 1012.6
20260507015152 62 130 3.5 8.7 0.00 0.05 0.05 88 1012.7
20260507014658 62 92 2.6 8.7 0.00 0.05 0.05 88 1012.6
20260507014139 62 159 3.5 9.6 0.00 0.05 0.05 88 1012.7
20260507013630 62 108 3.5 9.6 0.00 0.05 0.05 88 1012.6
20260507013137 62 145 4.3 9.6 0.00 0.05 0.05 88 1012.7
20260507012637 62 132 4.3 9.6 0.00 0.05 0.05 88 1012.9
20260507010348 61 158 1.7 10.4 0.00 0.04 0.04 87 1013.3
20260507005849 62 133 4.3 10.4 0.00 0.04 0.04 87 1013.3
20260507005330 61 124 5.2 10.4 0.00 0.04 0.04 87 1013.4
20260507004811 61 115 5.2 9.6 0.00 0.04 0.04 87 1013.4
20260507004304 61 128 4.3 9.6 0.00 0.04 0.04 87 1013.3
20260507003806 61 148 3.5 8.7 0.00 0.04 0.04 87 1013.3
20260507003310 61 133 3.5 8.7 0.00 0.04 0.04 87 1013.4
20260507002815 61 123 2.6 7.0 0.00 0.04 0.04 87 1013.5
20260507002312 62 82 2.6 7.0 0.03 0.04 0.04 87 1013.5
20260507001808 62 130 2.6 7.0 0.05 0.04 0.04 87 1013.5
20260507000630 62 118 2.6 7.0 0.00 0.03 0.03 86 1013.4
20260507000130 62 142 2.6 7.0 0.00 0.03 0.03 86 1013.5
20260506235624 61 118 2.6 7.0 0.00 0.03 0.03 85 1013.6
20260506235107 61 113 2.6 7.0 0.00 0.03 0.03 85 1013.7
20260506234601 61 144 1.7 6.1 0.03 0.03 0.03 84 1013.8
20260506234054 61 92 1.7 6.1 0.05 0.03 0.03 84 1013.9
20260506233537 61 128 1.7 5.2 0.06 0.03 0.03 84 1014.0
20260506232418 63 121 0.9 5.2 0.05 0.01 0.01 84 1014.1
20260506231256 63 140 0.0 0.0 0.00 0.00 0.00 83 1014.1
20260506230131 64 140 3.5 7.8 0.00 0.00 0.00 83 1014.2
20260506225620 64 121 2.6 7.0 0.00 0.00 0.00 82 1014.1
20260506225124 64 127 2.6 7.0 0.00 0.00 0.00 82 1014.3
20260506224633 64 140 2.6 7.0 0.00 0.00 0.00 82 1014.3
20260506224121 64 109 2.6 6.1 0.00 0.00 0.00 82 1014.4
20260506223625 64 136 2.6 7.0 0.00 0.00 0.00 82 1014.4
20260506223125 64 163 3.5 7.0 0.00 0.00 0.00 81 1014.5
20260506222610 64 132 3.5 7.0 0.00 0.00 0.00 82 1014.6
20260506222052 63 135 2.6 7.0 0.00 0.00 0.00 82 1014.5
20260506221546 63 132 1.7 4.3 0.00 0.00 0.00 82 1014.6
20260506221029 63 144 0.9 4.3 0.00 0.00 0.00 82 1014.5
20260506215906 63 140 0.9 3.5 0.00 0.00 0.00 82 1014.4
20260506215356 63 140 0.9 2.6 0.00 0.00 0.00 82 1014.4
20260506214852 63 133 0.0 2.6 0.00 0.00 0.00 82 1014.4
20260506214342 64 136 0.0 2.6 0.00 0.00 0.00 82 1014.5
20260506213851 64 136 0.9 2.6 0.00 0.00 0.00 82 1014.5
20260506213333 64 134 0.0 2.6 0.00 0.00 0.00 82 1014.4
20260506212819 64 134 0.9 2.6 0.00 0.00 0.00 82 1014.4
20260506212323 64 134 1.7 2.6 0.00 0.00 0.00 82 1014.4
20260506211816 64 128 0.9 2.6 0.00 0.00 0.00 83 1014.4
20260506211321 63 151 0.0 2.6 0.00 0.00 0.00 82 1014.5
20260506210828 63 155 0.0 2.6 0.00 0.00 0.00 82 1014.5
20260506210319 63 152 0.9 2.6 0.00 0.00 0.00 83 1014.6
20260506205814 63 148 0.9 2.6 0.00 0.00 0.00 83 1014.5
20260506205305 63 130 0.0 2.6 0.00 0.00 0.00 83 1014.5
20260506204812 63 146 0.9 2.6 0.00 0.00 0.00 83 1014.6
20260506204253 63 144 0.9 2.6 0.00 0.00 0.00 83 1014.6
20260506203750 63 160 0.9 2.6 0.00 0.00 0.00 83 1014.6
20260506202629 64 150 0.0 3.5 0.00 0.00 0.00 83 1014.7
20260506202110 64 149 0.9 4.3 0.00 0.00 0.00 83 1014.7
20260506201555 64 182 0.9 4.3 0.00 0.00 0.00 83 1014.7
20260506195807 64 150 0.9 4.3 0.00 0.00 0.00 83 1014.7
20260506195252 64 157 0.9 4.3 0.00 0.00 0.00 83 1014.7
20260506194758 65 164 1.7 4.3 0.00 0.00 0.00 83 1014.8
20260506193617 65 143 1.7 5.2 0.00 0.00 0.00 83 1014.8
20260506192443 65 136 2.6 10.4 0.00 0.00 0.00 83 1014.7
20260506191928 65 136 4.3 10.4 0.00 0.00 0.00 82 1014.7
20260506190745 65 80 6.1 9.6 0.00 0.00 0.00 82 1014.5
20260506190253 66 92 3.5 8.7 0.00 0.00 0.00 81 1014.4
20260506185736 66 76 0.9 5.2 0.00 0.00 0.00 81 1014.3
20260506184612 66 103 0.0 3.5 0.00 0.00 0.00 79 1014.3
20260506184100 66 109 0.0 3.5 0.00 0.00 0.00 78 1014.3
20260506183607 66 171 0.9 6.1 0.00 0.00 0.00 77 1014.3
20260506183110 66 158 0.9 6.1 0.00 0.00 0.00 75 1014.3
20260506182555 66 202 0.9 6.1 0.00 0.00 0.00 75 1014.2
20260506182051 66 175 1.7 6.1 0.00 0.00 0.00 74 1014.1
20260506181540 66 194 0.9 5.2 0.00 0.00 0.00 74 1014.1
20260506181037 66 139 0.0 4.3 0.00 0.00 0.00 73 1014.0
20260506180542 66 165 0.9 5.2 0.00 0.00 0.00 73 1014.0
20260506180026 66 155 1.7 5.2 0.00 0.00 0.00 73 1013.9
20260506175531 66 154 1.7 5.2 0.00 0.00 0.00 72 1013.9
20260506175036 67 182 1.7 5.2 0.00 0.00 0.00 72 1013.8
20260506174518 67 217 1.7 5.2 0.00 0.00 0.00 72 1013.7
20260506174021 67 158 0.9 5.2 0.00 0.00 0.00 72 1013.6
20260506173529 67 147 0.9 3.5 0.00 0.00 0.00 72 1013.6
20260506173019 67 157 0.9 3.5 0.00 0.00 0.00 72 1013.6
20260506172506 67 166 0.9 3.5 0.00 0.00 0.00 72 1013.6
20260506171328 67 167 0.0 2.6 0.00 0.00 0.00 72 1013.6
20260506170823 67 157 0.0 3.5 0.00 0.00 0.00 71 1013.5
20260506165705 68 179 0.9 5.2 0.00 0.00 0.00 71 1013.5
20260506165201 68 175 0.9 5.2 0.00 0.00 0.00 71 1013.5
20260506164039 68 174 0.9 3.5 0.00 0.00 0.00 70 1013.7
20260506163547 68 236 0.0 2.6 0.00 0.00 0.00 70 1013.6
20260506163043 68 234 0.9 2.6 0.00 0.00 0.00 70 1013.6
20260506162549 68 181 0.9 4.3 0.00 0.00 0.00 70 1013.4
20260506162051 68 214 0.9 4.3 0.00 0.00 0.00 70 1013.6
20260506161531 68 257 0.0 3.5 0.00 0.00 0.00 70 1013.6
20260506161039 68 209 0.9 3.5 0.00 0.00 0.00 70 1013.6
20260506160521 68 169 1.7 5.2 0.00 0.00 0.00 70 1013.6
20260506160003 68 217 0.9 5.2 0.00 0.00 0.00 71 1013.7
20260506155458 68 210 0.9 5.2 0.00 0.00 0.00 72 1013.7
20260506155007 67 227 0.9 5.2 0.00 0.00 0.00 74 1013.7
20260506154450 67 171 0.9 4.3 0.00 0.00 0.00 76 1013.7
20260506153312 67 50 0.0 0.0 0.00 0.00 0.00 80 1013.8
20260506152814 67 50 0.9 1.7 0.00 0.00 0.00 80 1013.7
20260506151700 67 26 0.0 2.6 0.00 0.00 0.00 78 1013.6
20260506151159 67 5 0.9 2.6 0.00 0.00 0.00 78 1013.7
20260506150645 68 296 0.9 2.6 0.00 0.00 0.00 77 1013.6
20260506145513 69 318 1.7 5.2 0.00 0.00 0.00 74 1013.8
20260506145007 71 287 1.7 5.2 0.00 0.00 0.00 70 1013.8
20260506144447 71 157 0.9 4.3 0.00 0.00 0.00 67 1013.8
20260506143327 71 194 0.9 6.1 0.00 0.00 0.00 66 1013.8
20260506142809 70 242 1.7 6.1 0.00 0.00 0.00 66 1013.8